{"data":{"norad_id":58795,"intl_designator":"2024-012J","name":"STARLINK-31161","alt_names":[],"object_type":"PAYLOAD","status":"ACTIVE","operator":null,"country":"US","launch_date":"2024-01-15","launch_site_code":"AFETR","launch_vehicle":null,"mission":null,"orbit_class":"UNKNOWN","rcs_meters":null,"size_class":null,"mass_kg":null,"dimensions":null,"purposes":["comms"],"wikipedia_slug":null,"has_3d_model":false,"image_url":null,"decayed_at":null,"tle_current":{"epoch":"2026-05-25T03:52:42.669408Z","epoch_age_seconds":54294,"freshness":"FRESH","line1":"1 58795U 24012J   26145.16160497  .00000481  00000+0  26994-4 0  9991","line2":"2 58795  43.0029  93.1812 0000675 277.4125  82.6650 15.27578181132934","mean_motion":15.27578181,"eccentricity":6.75e-5,"inclination_deg":43.0029,"raan_deg":93.1812,"arg_perigee_deg":277.4125,"mean_anomaly_deg":82.665,"bstar":2.6994e-5,"rev_number":13293,"period_min":94.266860964022,"perigee_km":482.5914123563,"apogee_km":483.51767321458,"semimajor_km":6861.1915427854,"source":"CELESTRAK","updated_at":"2026-05-25T13:38:18.749805Z"}}}